[[{"header":{"parameterUnit":"m.s-1","parameterCategory":1,"la1":30.2992,"la2":30.254,"lo1":-89.0895,"lo2":-89.0443,"dy":0.0025,"dx":0.0025,"nx":19,"ny":19,"refTime":"2026-05-03T21:00:00:Z","depth":0,"parameterNumber":2,"parameterNumberName":"U-component_of_WINDS"},"data":[0,0,0,-1.4806,-1.4808,-1.4924,-1.4925,-1.5056,-1.5057,0,0,0,0,0,0,0,0,0,0,0,-1.4763,-1.4764,-1.4806,-1.4808,-1.4924,-1.4925,-1.5056,-1.5057,0,0,0,0,0,0,0,0,0,0,0,-1.4763,-1.4763,-1.4764,-1.4809,-1.4924,-1.4925,-1.5055,-1.4974,0,0,0,0,0,0,0,0,0,0,-1.4864,-1.4816,-1.4763,-1.4764,-1.4809,-1.4924,-1.4925,-1.497,-1.4979,-1.4997,0,-1.5011,0,-1.5036,-1.5065,-1.5065,0,0,0,-1.4815,-1.4809,-1.4848,-1.4764,-1.481,-1.4924,-1.4874,-1.4975,-1.4985,-1.5008,-1.5014,-1.5019,-1.5038,-1.5066,-1.5066,-1.515,-1.515,0,0,-1.4808,-1.4779,-1.4841,-1.4854,-1.4837,-1.487,-1.4877,-1.4981,-1.4985,-1.5014,-1.5022,-1.5041,-1.5066,-1.5067,-1.515,-1.515,0,0,0,-1.4786,-1.4774,-1.4811,-1.4848,-1.487,-1.4873,-1.4881,-1.498,-1.4995,-1.5024,-1.5042,-1.5067,-1.5068,-1.515,-1.515,-1.5127,0,0,0,-1.4782,-1.4761,-1.4808,-1.4791,-1.4868,-1.4927,-1.4877,-1.4987,-1.5,-1.5041,-1.5067,-1.507,-1.515,-1.515,-1.5127,-1.5121,0,0,0,-1.4758,-1.4758,-1.4772,-1.4789,-1.4838,-1.4926,-1.4947,-1.4991,-1.5011,-1.5065,-1.507,-1.515,-1.515,-1.5128,-1.5122,-1.5134,0,0,0,-1.4724,-1.475,-1.4771,-1.4807,-1.4837,-1.4911,-1.4947,-1.5003,-1.5047,-1.5068,-1.515,-1.515,-1.5128,-1.5122,-1.5134,-1.5139,-1.5139,0,0,-1.474,-1.4751,-1.4774,-1.4796,-1.4859,-1.4896,-1.4955,-1.5022,-1.5054,-1.5116,-1.5119,-1.5127,-1.5122,-1.5134,-1.5146,-1.5145,0,0,0,-1.4769,-1.4785,-1.4808,-1.4848,-1.4901,-1.4945,-1.5006,-1.5031,-1.5086,-1.508,-1.5136,-1.5134,-1.5142,-1.5146,-1.5145,-1.5154,-1.5151,-1.5151,-1.5151,-1.4749,-1.4788,-1.4829,-1.4881,-1.492,-1.4983,-1.5017,-1.5061,-1.509,-1.5102,-1.5121,-1.5123,-1.5126,-1.5126,-1.5135,-1.5127,-1.5126,-1.5126,-1.5126,-1.4776,-1.4804,-1.4841,-1.4893,-1.4934,-1.4978,-1.5038,-1.5057,-1.5103,-1.5112,-1.5122,-1.5128,-1.5124,-1.5134,-1.5125,-1.5125,-1.5125,-1.5126,-1.5126,-1.4767,-1.4788,-1.4817,-1.4879,-1.4922,-1.4974,-1.5016,-1.5052,-1.5085,-1.5095,-1.5118,-1.5119,-1.5123,-1.5103,-1.5103,-1.5103,-1.5103,-1.5103,-1.5103,-1.4746,-1.4781,-1.4813,-1.4869,-1.4899,-1.4943,-1.5005,-1.5036,-1.5078,-1.51,-1.5101,-1.5127,-1.5117,-1.5113,-1.5104,-1.5104,-1.5104,-1.5104,-1.5104,-1.4759,-1.4761,-1.481,-1.484,-1.4909,-1.4949,-1.4993,-1.5051,-1.5081,-1.5101,-1.5125,-1.5111,-1.5125,-1.5125,-1.5123,-1.5117,-1.5117,-1.5117,-1.5117,-1.4751,-1.4761,-1.4819,-1.4864,-1.4913,-1.4958,-1.5011,-1.5058,-1.5108,-1.5129,-1.5135,-1.5134,-1.5133,-1.5147,-1.5147,-1.5145,-1.5145,-1.5145,-1.5145,-1.4761,-1.4777,-1.4816,-1.4865,-1.4921,-1.4968,-1.5019,-1.5068,-1.5125,-1.5147,-1.5146,-1.5144,-1.5144,-1.5142,-1.5164,-1.5164,-1.5161,0,0]},{"header":{"parameterUnit":"m.s-1","parameterCategory":1,"la1":30.2992,"la2":30.254,"lo1":-89.0895,"lo2":-89.0443,"dy":0.0025,"dx":0.0025,"nx":19,"ny":19,"refTime":"2026-05-03T21:00:00:Z","depth":0,"parameterNumber":3,"parameterNumberName":"V-component_of_WINDS"},"data":[0,0,0,-0.6982,-0.6981,-0.6956,-0.6956,-0.6929,-0.6929,0,0,0,0,0,0,0,0,0,0,0,-0.6992,-0.6992,-0.6982,-0.6981,-0.6956,-0.6956,-0.6929,-0.6929,0,0,0,0,0,0,0,0,0,0,0,-0.6992,-0.6992,-0.6992,-0.6981,-0.6956,-0.6956,-0.6929,-0.6947,0,0,0,0,0,0,0,0,0,0,-0.697,-0.6982,-0.6992,-0.6992,-0.6981,-0.6956,-0.6956,-0.6947,-0.6946,-0.6943,0,-0.6941,0,-0.6934,-0.6928,-0.6928,0,0,0,-0.6979,-0.6984,-0.6974,-0.6992,-0.6981,-0.6956,-0.6967,-0.6946,-0.6944,-0.694,-0.694,-0.6939,-0.6934,-0.6928,-0.6927,-0.6916,-0.6916,0,0,-0.6981,-0.6989,-0.6976,-0.6973,-0.6977,-0.6968,-0.6966,-0.6945,-0.6946,-0.694,-0.6939,-0.6934,-0.6927,-0.6927,-0.6916,-0.6916,0,0,0,-0.6986,-0.699,-0.6981,-0.6974,-0.6969,-0.6967,-0.6965,-0.6947,-0.6943,-0.6938,-0.6933,-0.6927,-0.6927,-0.6916,-0.6916,-0.6925,0,0,0,-0.6987,-0.6993,-0.6982,-0.6987,-0.697,-0.6958,-0.6968,-0.6944,-0.6942,-0.6933,-0.6927,-0.6927,-0.6916,-0.6916,-0.6924,-0.6928,0,0,0,-0.6993,-0.6994,-0.6991,-0.6988,-0.6977,-0.6958,-0.6953,-0.6944,-0.6939,-0.6928,-0.6927,-0.6916,-0.6916,-0.6924,-0.6927,-0.6927,0,0,0,-0.7002,-0.7001,-0.6992,-0.6989,-0.6977,-0.6963,-0.6953,-0.6942,-0.6934,-0.6927,-0.6916,-0.6916,-0.6924,-0.6927,-0.6926,-0.6927,-0.6928,0,0,-0.7005,-0.7002,-0.6999,-0.699,-0.698,-0.6967,-0.6958,-0.6943,-0.6934,-0.6923,-0.6922,-0.6925,-0.6927,-0.6926,-0.6933,-0.6934,0,0,0,-0.7003,-0.7001,-0.6997,-0.6988,-0.6976,-0.6965,-0.695,-0.6944,-0.6933,-0.693,-0.6924,-0.6925,-0.6925,-0.6925,-0.6925,-0.6924,-0.6916,-0.6916,-0.6916,-0.7021,-0.7009,-0.7004,-0.6988,-0.698,-0.6964,-0.6956,-0.6946,-0.6937,-0.6936,-0.6932,-0.6938,-0.6938,-0.6938,-0.6937,-0.6932,-0.6932,-0.6932,-0.6932,-0.7025,-0.702,-0.7007,-0.6997,-0.6984,-0.6976,-0.696,-0.6954,-0.6945,-0.694,-0.6938,-0.6934,-0.694,-0.6938,-0.6933,-0.6933,-0.6933,-0.6933,-0.6933,-0.7035,-0.703,-0.7022,-0.7007,-0.6998,-0.6983,-0.6973,-0.6963,-0.6953,-0.6952,-0.6946,-0.6946,-0.6944,-0.695,-0.695,-0.695,-0.695,-0.695,-0.695,-0.7048,-0.7038,-0.7032,-0.7017,-0.7009,-0.6998,-0.6981,-0.6973,-0.6962,-0.6955,-0.6955,-0.6946,-0.6943,-0.6942,-0.695,-0.695,-0.695,-0.695,-0.695,-0.7055,-0.7051,-0.7041,-0.7033,-0.7014,-0.7005,-0.6991,-0.6976,-0.6968,-0.6964,-0.6955,-0.6955,-0.695,-0.695,-0.6949,-0.6958,-0.6958,-0.6958,-0.6958,-0.7063,-0.706,-0.7046,-0.7034,-0.7021,-0.7007,-0.6995,-0.6981,-0.6967,-0.6961,-0.6958,-0.6956,-0.6956,-0.6952,-0.6951,-0.695,-0.6959,-0.6959,-0.6959,-0.7067,-0.7061,-0.7053,-0.7038,-0.7022,-0.7009,-0.6997,-0.6984,-0.6967,-0.6959,-0.6956,-0.6956,-0.6953,-0.6953,-0.6945,-0.6944,-0.6942,0,0]}]]